Location: Bercimuel
(41.3983°N, 3.5711°W)
Time: 05:21:38
(UTC+00:00)

Aureole 1 Rocket - Pass Details

Date: 15 May 2026
Orbit: 372 x 1149 km, 73.9° (Epoch: 6 June)

Event Time Altitude Azimuth Distance (km) Brightness Sun altitude
Rises 22:15:45 0° 345° (NNW) 3,385 8.1 -24.0°
Reaches altitude 10° 22:18:06 10° 351° (N) 2,558 7.1 -24.2°
Maximum altitude 22:23:58 50° 67° (ENE) 1,260 4.5 -24.7°
Enters shadow 22:25:36 42° 107° (ESE) 1,440 4.5 -24.8°
